Location: Prairie State College
(41.5244°N, 87.6382°W)
Time: 12:47:04
(UTC-05:00)

ISS - All Passes

Search period start: 28 April 2017 00:00
Search period end: 08 May 2017 00:00
Orbit: 401 x 409 km, 51.6° (Epoch: 29 April)

Date Brightness Start Highest point End Pass type
(mag) Time Alt. Az. Time Alt. Az. Time Alt. Az.
28 Apr - 07:36:22 10° SSW 07:39:19 32° SE 07:42:17 10° ENE daylight
28 Apr - 09:12:47 10° W 09:15:47 33° NNW 09:18:48 10° NE daylight
28 Apr - 10:51:06 10° NW 10:53:01 15° N 10:54:57 10° NNE daylight
28 Apr - 12:28:09 10° NNW 12:30:28 18° NNE 12:32:47 10° ENE daylight
28 Apr - 14:04:13 10° NW 14:07:27 64° NNE 14:10:41 10° ESE daylight
28 Apr - 15:41:42 10° W 15:43:36 15° SW 15:45:29 10° SSW daylight
29 Apr - 06:45:12 10° S 06:47:26 17° SE 06:49:41 10° E daylight
29 Apr - 08:20:27 10° WSW 08:23:39 54° NNW 08:26:52 10° NE daylight
29 Apr - 09:58:28 10° NW 10:00:41 17° NNW 10:02:54 10° NNE daylight
29 Apr - 11:36:09 10° NNW 11:38:09 15° N 11:40:09 10° NE daylight
29 Apr - 13:12:15 10° NW 13:15:20 37° NNE 13:18:24 10° E daylight
29 Apr - 14:48:55 10° WNW 14:51:44 27° SW 14:54:32 10° SSE daylight
30 Apr - 07:28:18 10° SW 07:31:35 82° SE 07:34:50 10° NE daylight
30 Apr - 09:05:49 10° WNW 09:08:23 21° NNW 09:10:58 10° NNE daylight
30 Apr - 10:43:58 10° NNW 10:45:47 14° N 10:47:37 10° NE daylight
30 Apr - 12:20:20 10° NW 12:23:07 25° NNE 12:25:54 10° E daylight
30 Apr - 13:56:35 10° WNW 13:59:47 52° SW 14:02:57 10° SE daylight
01 May - 06:36:28 10° SSW 06:39:33 41° SE 06:42:40 10° ENE daylight
01 May - 08:13:13 10° W 08:16:07 29° NNW 08:19:02 10° NE daylight
01 May - 09:51:33 10° NW 09:53:25 14° N 09:55:16 10° NNE daylight
01 May - 11:28:24 10° NNW 11:30:51 19° NNE 11:33:16 10° ENE daylight
01 May - 13:04:28 10° NW 13:07:44 80° NE 13:10:59 10° ESE daylight
01 May - 14:42:39 10° WSW 14:43:46 11° SW 14:44:55 10° SSW daylight
02 May - 05:45:01 10° S 05:47:37 22° SE 05:50:12 10° E daylight
02 May - 07:20:46 10° WSW 07:23:55 44° NNW 07:27:05 10° NE daylight
02 May - 08:58:55 10° NW 09:01:02 16° N 09:03:08 10° NNE daylight
02 May - 10:36:23 10° NNW 10:38:30 16° N 10:40:36 10° NE daylight
02 May - 12:12:27 10° NW 12:15:36 45° NNE 12:18:44 10° ESE daylight
02 May - 13:49:20 10° W 13:51:53 21° SW 13:54:28 10° S daylight
03 May - 04:54:30 10° SSE 04:55:43 12° SE 04:56:57 10° ESE visible
03 May - 06:28:30 10° WSW 06:31:46 79° NW 06:35:03 10° NE daylight
03 May - 08:06:14 10° WNW 08:08:40 19° NNW 08:11:07 10° NNE daylight
03 May - 09:44:14 10° NNW 09:46:06 14° N 09:47:58 10° NE daylight
03 May - 11:20:29 10° NW 11:23:23 29° NNE 11:26:17 10° E daylight
03 May - 12:56:51 10° WNW 12:59:56 40° SW 13:03:01 10° SSE daylight
04 May - 05:36:30 10° SW 05:39:41 53° SE 05:42:54 10° ENE daylight
04 May - 07:13:34 10° W 07:16:21 25° NNW 07:19:09 10° NE daylight
04 May - 08:51:52 10° NW 08:53:41 14° N 08:55:31 10° NNE daylight
04 May - 10:28:31 10° NNW 10:31:06 21° NNE 10:33:39 10° ENE daylight
04 May - 12:04:38 10° WNW 12:07:54 81° SW 12:11:08 10° SE daylight
05 May - 04:44:51 10° SSW 04:47:41 27° SE 04:50:31 10° ENE visible
05 May - 06:21:00 10° W 06:24:05 37° NNW 06:27:10 10° NE daylight
05 May - 07:59:15 10° NW 08:01:16 15° N 08:03:16 10° NNE daylight
05 May - 09:36:29 10° NNW 09:38:43 17° NNE 09:40:57 10° NE daylight
05 May - 11:12:32 10° NW 11:15:45 55° NNE 11:18:57 10° ESE daylight
05 May - 12:49:44 10° W 12:51:57 17° SW 12:54:09 10° S daylight
06 May - 03:53:48 10° SSE 03:55:44 15° SE 03:57:41 10° E visible
06 May - 05:28:37 10° WSW 05:31:52 63° NW 05:35:08 10° NE daylight
06 May - 07:06:32 10° WNW 07:08:51 18° NNW 07:11:10 10° NNE daylight
06 May - 08:44:21 10° NNW 08:46:18 15° N 08:48:14 10° NE daylight
06 May - 10:20:30 10° NW 10:23:31 33° NNE 10:26:31 10° E daylight
06 May - 11:57:02 10° WNW 11:59:59 32° SW 12:02:55 10° SSE daylight
07 May - 04:36:29 10° SW 04:39:43 69° SE 04:42:59 10° ENE visible
07 May - 06:13:48 10° WNW 06:16:28 22° NNW 06:19:09 10° NE daylight
07 May - 07:52:02 10° NNW 07:53:51 14° N 07:55:40 10° NE daylight
07 May - 09:28:30 10° NW 09:31:12 23° NNE 09:33:54 10° ENE daylight
07 May - 11:04:41 10° WNW 11:07:55 63° SW 11:11:08 10° SE daylight
